TimeEDT,TemperatureF,Dew PointF,Humidity,Sea Level PressureIn,VisibilityMPH,Wind Direction,Wind SpeedMPH,Gust SpeedMPH,PrecipitationIn,Events,Conditions,WindDirDegrees,DateUTC
12:15 AM,39.7,38.5,95,30.02,10.0,Calm,Calm,-,N/A,,Clear,0,2013-06-03 04:15:00
12:35 AM,38.7,37.6,96,30.02,10.0,Calm,Calm,-,N/A,,Clear,0,2013-06-03 04:35:00
12:55 AM,38.8,37.9,97,30.02,10.0,Calm,Calm,-,N/A,,Clear,0,2013-06-03 04:55:00
1:15 AM,38.5,37.8,97,30.03,10.0,Calm,Calm,-,N/A,,Clear,0,2013-06-03 05:15:00
1:35 AM,39.2,38.7,98,30.03,10.0,Calm,Calm,-,N/A,,Clear,0,2013-06-03 05:35:00
1:55 AM,39.0,38.1,97,30.04,10.0,Calm,Calm,-,N/A,,Clear,0,2013-06-03 05:55:00
2:15 AM,37.9,37.4,98,30.04,10.0,WSW,3.5,-,N/A,,Clear,250,2013-06-03 06:15:00
2:35 AM,38.5,37.8,97,30.04,10.0,Calm,Calm,-,N/A,,Clear,0,2013-06-03 06:35:00
2:55 AM,38.5,37.8,97,30.04,10.0,Calm,Calm,-,N/A,,Clear,0,2013-06-03 06:55:00
3:15 AM,38.5,37.8,97,30.04,10.0,Calm,Calm,-,N/A,,Clear,0,2013-06-03 07:15:00
3:35 AM,38.3,37.6,97,30.04,10.0,Calm,Calm,-,N/A,,Clear,0,2013-06-03 07:35:00
3:55 AM,38.3,37.4,97,30.04,10.0,Calm,Calm,-,N/A,,Clear,0,2013-06-03 07:55:00
4:15 AM,38.3,37.4,97,30.04,10.0,Calm,Calm,-,N/A,,Clear,0,2013-06-03 08:15:00
4:35 AM,37.9,37.0,97,30.04,10.0,Calm,Calm,-,N/A,,Clear,0,2013-06-03 08:35:00
4:55 AM,37.0,36.5,98,30.04,10.0,Calm,Calm,-,N/A,,Clear,0,2013-06-03 08:55:00
5:15 AM,36.9,36.3,98,30.04,10.0,Calm,Calm,-,N/A,,Clear,0,2013-06-03 09:15:00
5:35 AM,36.0,35.6,99,30.05,10.0,Calm,Calm,-,N/A,,Clear,0,2013-06-03 09:35:00
5:55 AM,36.3,35.8,98,30.05,10.0,Calm,Calm,-,N/A,,Clear,0,2013-06-03 09:55:00
6:15 AM,36.3,35.6,97,30.05,10.0,Calm,Calm,-,N/A,,Clear,0,2013-06-03 10:15:00
6:35 AM,36.9,36.0,97,30.07,10.0,Calm,Calm,-,N/A,,Clear,0,2013-06-03 10:35:00
6:55 AM,37.0,36.3,97,30.07,10.0,Calm,Calm,-,N/A,,Clear,0,2013-06-03 10:55:00
7:15 AM,37.9,36.9,96,30.07,10.0,SSW,5.8,-,N/A,,Clear,200,2013-06-03 11:15:00
7:35 AM,39.6,37.9,94,30.07,10.0,SSW,5.8,-,N/A,,Clear,210,2013-06-03 11:35:00
7:55 AM,41.5,39.7,93,30.07,10.0,Calm,Calm,-,N/A,,Clear,0,2013-06-03 11:55:00
8:15 AM,44.1,41.4,90,30.08,10.0,Calm,Calm,-,N/A,,Clear,0,2013-06-03 12:15:00
8:35 AM,47.7,36.7,66,30.08,10.0,WSW,3.5,-,N/A,,Clear,240,2013-06-03 12:35:00
8:55 AM,48.7,33.3,55,30.09,10.0,WSW,4.6,-,N/A,,Clear,240,2013-06-03 12:55:00
9:15 AM,50.2,32.5,51,30.09,10.0,WSW,3.5,-,N/A,,Clear,250,2013-06-03 13:15:00
9:35 AM,51.1,33.8,52,30.09,10.0,SW,4.6,-,N/A,,Clear,220,2013-06-03 13:35:00
9:55 AM,52.0,32.2,47,30.09,10.0,West,5.8,-,N/A,,Clear,280,2013-06-03 13:55:00
10:15 AM,53.1,33.3,47,30.09,10.0,SW,5.8,-,N/A,,Clear,230,2013-06-03 14:15:00
10:35 AM,54.1,34.7,48,30.08,10.0,WSW,9.2,-,N/A,,Clear,240,2013-06-03 14:35:00
10:55 AM,55.6,36.7,49,30.08,10.0,WSW,10.4,-,N/A,,Clear,250,2013-06-03 14:55:00
11:15 AM,56.8,35.1,44,30.08,10.0,WNW,9.2,-,N/A,,Clear,290,2013-06-03 15:15:00
11:35 AM,58.1,37.0,45,30.08,10.0,West,6.9,-,N/A,,Clear,260,2013-06-03 15:35:00
11:55 AM,58.6,34.3,40,30.07,10.0,NW,8.1,-,N/A,,Clear,310,2013-06-03 15:55:00
12:15 PM,59.4,36.7,43,30.07,10.0,West,8.1,-,N/A,,Scattered Clouds,280,2013-06-03 16:15:00
12:35 PM,59.5,37.6,44,30.07,10.0,WNW,9.2,-,N/A,,Mostly Cloudy,300,2013-06-03 16:35:00
12:55 PM,60.4,36.9,42,30.07,10.0,West,9.2,17.3,N/A,,Mostly Cloudy,280,2013-06-03 16:55:00
1:15 PM,61.0,37.0,41,30.06,10.0,West,15.0,24.2,N/A,,Mostly Cloudy,270,2013-06-03 17:15:00
1:35 PM,62.8,37.9,40,30.05,10.0,NW,9.2,17.3,N/A,,Mostly Cloudy,310,2013-06-03 17:35:00
1:55 PM,62.2,35.2,37,30.04,10.0,NW,8.1,18.4,N/A,,Scattered Clouds,320,2013-06-03 17:55:00
2:15 PM,64.0,35.8,35,30.04,10.0,West,11.5,17.3,N/A,,Mostly Cloudy,270,2013-06-03 18:15:00
2:35 PM,62.8,33.6,34,30.04,10.0,NW,9.2,21.9,N/A,,Scattered Clouds,320,2013-06-03 18:35:00
2:55 PM,64.2,32.2,30,30.04,10.0,West,8.1,18.4,N/A,,Clear,280,2013-06-03 18:55:00
3:15 PM,65.1,32.9,30,30.03,10.0,WNW,13.8,19.6,N/A,,Scattered Clouds,300,2013-06-03 19:15:00
3:35 PM,64.9,32.5,30,30.03,10.0,West,15.0,20.7,N/A,,Mostly Cloudy,270,2013-06-03 19:35:00
3:55 PM,65.7,32.9,30,30.03,10.0,West,16.1,23.0,N/A,,Scattered Clouds,280,2013-06-03 19:55:00
4:15 PM,65.1,33.1,30,30.02,10.0,NNW,11.5,23.0,N/A,,Scattered Clouds,330,2013-06-03 20:15:00
4:35 PM,65.8,32.5,29,30.02,10.0,WNW,11.5,18.4,N/A,,Clear,290,2013-06-03 20:35:00
4:55 PM,64.8,32.0,29,30.02,10.0,NW,5.8,18.4,N/A,,Clear,310,2013-06-03 20:55:00
5:15 PM,65.1,30.0,27,30.02,10.0,West,12.7,24.2,N/A,,Clear,280,2013-06-03 21:15:00
5:35 PM,65.3,33.1,30,30.02,10.0,NNW,10.4,-,N/A,,Clear,330,2013-06-03 21:35:00
5:55 PM,65.5,33.1,30,30.01,10.0,WNW,12.7,18.4,N/A,,Clear,300,2013-06-03 21:55:00
6:15 PM,64.9,33.3,31,30.01,10.0,WNW,6.9,21.9,N/A,,Clear,300,2013-06-03 22:15:00
6:35 PM,64.6,33.8,32,30.01,10.0,NNW,5.8,-,N/A,,Clear,330,2013-06-03 22:35:00
6:55 PM,63.1,33.4,33,30.02,10.0,NNW,4.6,-,N/A,,Scattered Clouds,330,2013-06-03 22:55:00
7:15 PM,63.7,35.6,35,30.02,10.0,NNW,6.9,-,N/A,,Scattered Clouds,330,2013-06-03 23:15:00
7:35 PM,62.6,37.2,39,30.02,10.0,NNW,4.6,-,N/A,,Clear,330,2013-06-03 23:35:00
7:55 PM,62.1,37.2,40,30.03,10.0,NNW,3.5,-,N/A,,Clear,340,2013-06-03 23:55:00
8:15 PM,62.1,37.4,40,30.03,10.0,Calm,Calm,-,N/A,,Clear,0,2013-06-04 00:15:00
8:35 PM,62.6,38.3,41,30.03,10.0,Calm,Calm,-,N/A,,Clear,0,2013-06-04 00:35:00
8:55 PM,60.3,42.6,52,30.04,10.0,Calm,Calm,-,N/A,,Clear,0,2013-06-04 00:55:00
9:15 PM,57.4,43.0,59,30.04,10.0,Calm,Calm,-,N/A,,Clear,0,2013-06-04 01:15:00
9:35 PM,56.8,41.2,56,30.05,10.0,NW,4.6,-,N/A,,Scattered Clouds,320,2013-06-04 01:35:00
9:55 PM,55.6,41.7,60,30.07,10.0,NW,3.5,-,N/A,,Scattered Clouds,320,2013-06-04 01:55:00
10:15 PM,56.7,40.1,54,30.08,10.0,NW,3.5,-,N/A,,Clear,320,2013-06-04 02:15:00
10:35 PM,54.9,41.5,61,30.09,10.0,West,5.8,-,N/A,,Clear,280,2013-06-04 02:35:00
10:55 PM,54.0,40.8,61,30.09,10.0,WNW,3.5,-,N/A,,Clear,300,2013-06-04 02:55:00
11:15 PM,52.2,42.1,69,30.09,10.0,WNW,9.2,-,N/A,,Clear,290,2013-06-04 03:15:00
11:35 PM,51.8,42.1,69,30.10,10.0,WNW,6.9,-,N/A,,Clear,290,2013-06-04 03:35:00
11:56 PM,51.8,41.7,68,30.11,10.0,WNW,5.8,-,N/A,,Clear,300,2013-06-04 03:56:00